EW9060 Weather Reports


time (UTC)temp
F
wind
direction
speed
knots
gust
knots
rain 1hr
in
rain 24hr
in
rain mn
in
humidity
%
barometer
mb
20260904030027 66 51 0.0 2.6 0.00 0.00 0.00 78 1012.0
20260904024527 67 316 0.0 2.6 0.00 0.00 0.00 77 1012.1
20260904023025 68 307 0.0 5.2 0.00 0.00 0.00 75 1012.1
20260904021534 69 304 1.7 7.0 0.00 0.00 0.00 71 1012.2
20260904020024 69 275 2.6 7.0 0.00 0.00 0.00 70 1012.0
20260904014523 70 280 0.0 7.0 0.00 0.00 0.00 70 1012.1
20260904013024 70 292 2.6 5.2 0.00 0.00 0.00 70 1012.2
20260904011522 71 292 1.7 7.8 0.00 0.00 0.00 69 1012.2
20260904010021 71 242 3.5 6.1 0.00 0.00 0.00 69 1012.2
20260904004519 71 261 1.7 8.7 0.00 0.00 0.00 68 1012.4
20260904003019 72 232 3.5 9.6 0.00 0.00 0.00 67 1012.4
20260904001522 72 281 4.3 9.6 0.00 0.00 0.00 66 1012.4
20260904000019 73 190 1.7 8.7 0.00 0.00 0.00 66 1012.3
20260903234516 73 290 3.5 14.8 0.00 0.00 0.00 65 1012.3
20260903233015 74 165 2.6 9.6 0.00 0.00 0.00 63 1012.5
20260903231512 74 205 5.2 13.0 0.00 0.00 0.00 62 1012.6
20260903230013 74 258 5.2 12.2 0.00 0.00 0.00 62 1012.9
20260903224506 74 263 6.1 12.2 0.00 0.00 0.00 63 1012.9
20260903223004 74 227 4.3 10.4 0.00 0.00 0.00 63 1013.0
20260903221503 74 188 3.5 10.4 0.00 0.00 0.00 63 1013.1
20260903220002 74 242 2.6 8.7 0.00 0.00 0.00 63 1013.3
20260903214501 74 161 1.7 9.6 0.00 0.00 0.00 63 1013.3
20260903213058 74 254 3.5 10.4 0.00 0.00 0.00 62 1013.3
20260903211557 74 181 2.6 7.8 0.00 0.00 0.00 62 1013.5
20260903210059 74 171 4.3 13.9 0.00 0.00 0.00 62 1013.9
20260903204550 74 252 3.5 12.2 0.00 0.00 0.00 62 1013.9
20260903203050 73 194 3.5 10.4 0.00 0.00 0.00 62 1014.0
20260903201543 74 153 4.3 12.2 0.00 0.00 0.00 62 1014.1
20260903200039 73 182 2.6 13.0 0.00 0.00 0.00 63 1014.2
20260903194535 71 240 1.7 8.7 0.00 0.00 0.00 66 1014.4
20260903193033 71 165 2.6 7.0 0.00 0.00 0.00 67 1014.6
20260903191532 71 13 1.7 10.4 0.00 0.00 0.00 66 1014.7
20260903190031 71 13 2.6 11.3 0.00 0.00 0.00 66 1014.9
20260903184529 71 239 3.5 10.4 0.00 0.00 0.00 65 1015.1
20260903183029 72 175 4.3 7.8 0.00 0.00 0.00 64 1015.1
20260903181526 72 217 3.5 8.7 0.00 0.00 0.00 65 1015.1
20260903180031 72 194 3.5 7.8 0.00 0.00 0.00 66 1015.0
20260903174521 70 186 1.7 5.2 0.00 0.00 0.00 69 1015.1
20260903173017 69 242 0.9 6.1 0.00 0.00 0.00 71 1015.2
20260903171524 68 174 0.9 7.8 0.00 0.00 0.00 74 1015.2
20260903170026 66 141 2.6 8.7 0.00 0.00 0.00 75 1015.3
20260903164507 65 138 1.7 7.8 0.00 0.00 0.00 77 1015.5
20260903163007 65 113 1.7 5.2 0.00 0.00 0.00 78 1015.5
20260903161501 63 182 0.9 5.2 0.00 0.00 0.00 79 1015.6
20260903160100 63 186 2.6 6.1 0.00 0.00 0.00 80 1015.7
20260903154558 62 147 1.7 7.0 0.00 0.00 0.00 79 1015.8
20260903153057 62 132 0.0 7.0 0.00 0.00 0.00 80 1015.9
20260903151557 62 153 1.7 7.8 0.00 0.00 0.00 80 1015.8
20260903150110 62 163 2.6 7.0 0.00 0.00 0.00 80 1015.8
20260903144601 61 141 3.5 7.8 0.00 0.00 0.00 81 1015.8
20260903143056 61 163 1.7 8.7 0.00 0.00 0.00 81 1015.8
20260903141554 61 153 3.5 7.8 0.00 0.00 0.00 81 1015.6
20260903140053 61 152 0.9 7.0 0.00 0.00 0.00 81 1015.6
20260903134603 61 119 1.7 6.1 0.00 0.00 0.00 81 1015.4
20260903133051 61 139 1.7 7.0 0.00 0.00 0.00 80 1015.3
20260903131550 61 72 0.9 6.1 0.00 0.00 0.00 81 1015.4
20260903130053 61 137 2.6 6.1 0.00 0.00 0.00 80 1015.4
20260903124648 61 133 1.7 6.1 0.00 0.00 0.00 80 1015.6
20260903123048 61 159 1.7 7.8 0.00 0.00 0.00 80 1015.5
20260903121552 61 126 1.7 6.1 0.00 0.00 0.00 80 1015.5
20260903120053 61 155 1.7 6.1 0.00 0.00 0.00 80 1015.6
20260903114543 61 179 0.9 6.1 0.00 0.00 0.00 79 1015.6
20260903113047 61 188 1.7 7.8 0.00 0.00 0.00 79 1015.8
20260903111540 61 130 0.0 7.0 0.00 0.00 0.00 80 1015.9
20260903110040 61 124 1.7 5.2 0.00 0.00 0.00 80 1015.9
20260903104539 61 153 1.7 6.1 0.00 0.00 0.00 80 1015.9
20260903103038 61 139 1.7 6.1 0.00 0.00 0.00 80 1015.9
20260903101538 61 143 1.7 6.1 0.00 0.00 0.00 80 1016.0
20260903100037 61 218 0.9 4.3 0.00 0.00 0.00 79 1015.9
20260903094542 61 196 0.0 5.2 0.00 0.00 0.00 79 1015.9
20260903093034 61 147 0.9 7.0 0.00 0.00 0.00 78 1016.0
20260903091532 61 194 0.9 4.3 0.00 0.00 0.00 76 1016.3
20260903090030 61 164 0.0 6.1 0.00 0.00 0.00 75 1016.3
20260903084539 62 150 0.9 4.3 0.00 0.00 0.00 74 1016.2
20260903083027 62 133 0.9 4.3 0.00 0.00 0.00 73 1016.2
20260903081526 62 157 0.0 5.2 0.00 0.00 0.00 72 1016.2
20260903080024 62 159 0.9 2.6 0.00 0.00 0.00 71 1016.2
20260903074522 63 174 0.9 6.1 0.00 0.00 0.00 71 1016.1
20260903073021 63 145 1.7 6.1 0.00 0.00 0.00 70 1016.2
20260903071519 63 125 0.9 5.2 0.00 0.00 0.00 69 1016.1
20260903070016 64 142 0.9 3.5 0.00 0.00 0.00 68 1016.1
20260903064515 64 140 0.9 5.2 0.00 0.00 0.00 66 1016.1
20260903063014 65 158 0.0 3.5 0.00 0.00 0.00 64 1016.1
20260903061519 65 130 0.0 6.1 0.00 0.00 0.00 63 1016.0
20260903060015 66 148 0.0 5.2 0.00 0.00 0.00 62 1015.9
20260903054514 66 264 1.7 7.8 0.00 0.00 0.00 61 1015.9
20260903053022 67 221 2.6 6.1 0.00 0.00 0.00 60 1016.0
20260903051512 68 240 0.9 5.2 0.00 0.00 0.00 60 1016.1
20260903050011 68 239 0.9 6.1 0.00 0.00 0.00 59 1016.2
20260903044512 69 184 0.9 4.3 0.00 0.00 0.00 59 1016.2
20260903043024 70 202 0.0 3.5 0.00 0.00 0.00 58 1016.2
20260903041510 70 171 0.0 2.6 0.00 0.00 0.00 57 1016.0
20260903040009 71 299 0.0 3.5 0.00 0.00 0.00 55 1015.8
20260903034508 71 227 0.0 2.6 0.00 0.00 0.00 53 1015.6
20260903033007 72 192 0.9 6.1 0.00 0.00 0.00 52 1015.4
20260903031506 72 175 0.0 5.2 0.00 0.00 0.00 50 1015.3